GFSFLT1_prec_snow_345.txt.gz
Snowfall_Accumulation
0.0 0.0 0.0 0.0 0.0 0.0 0.0 0.0 0.0 0.0 0.0 0.0 0.0 0.0 0.0 0.0 0.0 0.0 0.0 0.0 0.0 0.0 0.0 0.0 0.0 0.0 0.0 0.0 0.0 0.0 0.0 0.0
0.0 0.0 0.0 0.0 0.0 0.0 0.0 0.0 0.0 0.0 0.0 0.0 0.0 0.0 0.0 0.0 0.0 0.0 0.0 0.0 0.0 0.0 0.0 0.0 0.0 0.0 0.0 0.0 0.0 0.0 0.0 0.0
0.0 0.0 0.0 0.0 0.0 0.0 0.0 0.0 0.0 0.0 0.0 0.0 0.0 0.0 0.0 0.0 0.0 0.0 0.0 0.0 0.0 0.0 0.0 0.0 0.0 0.0 0.0 0.0 0.0 0.2 0.1 0.0
0.0 0.0 0.0 0.0 0.0 0.0 0.0 0.0 0.0 0.0 0.0 0.0 0.0 0.0 0.0 0.0 0.0 0.0 0.0 0.0 0.0 0.0 0.0 0.0 0.0 0.0 0.0 0.0 0.1 0.2 0.8 0.0
0.0 0.0 0.0 0.0 0.0 0.0 0.0 0.0 0.0 0.0 0.0 0.0 0.0 0.0 0.0 0.0 0.0 0.0 0.0 0.0 0.0 0.0 0.0 0.0 0.0 0.0 0.0 0.0 0.0 0.4 0.6 0.4
0.0 0.0 0.0 0.0 0.0 0.0 0.0 0.0 0.0 0.0 0.0 0.0 0.0 0.0 0.0 0.0 0.0 0.0 0.0 0.0 0.0 0.0 0.0 0.0 0.0 0.0 0.0 0.1 0.0 0.5 0.2 1.3
0.0 0.0 0.0 0.0 0.0 0.0 0.0 0.0 0.0 0.0 0.0 0.0 0.0 0.0 0.0 0.0 0.0 0.0 0.0 0.0 0.0 0.0 0.0 0.0 0.0 0.0 0.3 0.2 0.2 0.4 0.5 1.0
0.5 0.0 0.0 0.0 0.0 0.0 0.0 0.0 0.0 0.0 0.0 0.0 0.0 0.0 0.0 0.0 0.0 0.1 0.0 0.1 0.2 0.2 0.0 0.2 0.2 0.1 0.6 0.8 1.2 1.1 1.3 2.1
1.1 0.0 0.0 0.0 0.0 0.0 0.0 0.0 0.0 0.0 0.0 0.0 0.0 0.0 0.0 0.1 0.0 0.0 0.1 0.1 0.4 0.2 0.4 0.3 0.6 0.6 1.0 1.5 2.0 2.3 2.4 2.5
2.2 0.1 1.1 1.1 1.0 0.5 0.1 0.1 0.0 0.0 0.0 0.0 0.0 0.0 0.0 0.0 0.0 0.0 0.1 0.4 0.3 0.4 0.5 0.9 0.6 0.8 1.2 2.4 3.2 3.8 3.3 3.7
3.1 4.3 4.1 2.2 2.1 1.0 0.1 0.1 0.1 0.1 0.2 0.0 0.0 0.0 0.0 0.0 0.0 0.0 0.1 0.5 1.1 1.5 1.6 1.6 2.0 1.6 1.7 2.1 2.6 3.1 3.8 4.0
5.0 8.8 7.4 5.6 4.9 3.8 2.4 2.2 1.9 0.8 0.7 0.1 0.1 0.2 0.0 0.0 0.0 0.5 1.6 2.2 2.9 2.8 2.8 3.6 3.6 2.9 2.3 1.7 2.0 1.9 2.4 3.3
4.9 3.6 5.3 10.8 10.1 6.0 4.9 3.4 3.4 3.8 2.8 2.3 2.3 2.9 1.6 1.7 1.6 1.1 1.7 2.2 3.1 3.5 3.6 3.1 3.1 3.1 3.2 2.1 1.5 1.0 1.2 1.7
10.1 8.9 7.6 5.8 7.8 8.6 6.7 5.0 4.3 6.0 4.7 3.8 3.3 2.8 1.8 1.7 3.5 4.2 1.5 2.6 2.1 3.4 2.7 2.6 3.1 3.1 2.5 2.0 1.3 1.6 2.2 2.8
8.5 8.1 10.8 11.1 6.5 6.2 5.4 4.1 9.5 8.5 5.7 5.2 5.3 5.1 3.4 3.1 3.2 3.8 3.4 4.7 4.3 4.7 4.4 3.5 3.8 3.1 3.4 2.0 1.1 1.1 1.0 3.2
6.3 7.4 5.6 6.7 7.6 5.2 5.6 5.7 4.0 5.6 5.8 4.5 3.9 4.7 6.4 4.3 3.2 4.4 5.1 4.4 3.8 4.2 3.7 4.0 5.8 6.3 7.2 7.5 4.5 3.0 2.5 1.3
2.3 1.6 2.2 1.3 0.8 1.2 2.3 1.0 1.1 0.8 1.8 1.7 3.1 1.3 3.3 4.2 3.0 3.2 2.6 1.6 3.6 4.7 7.2 5.5 9.8 9.3 9.0 8.4 3.5 3.6 3.1 3.0
1.5 0.6 0.9 0.7 0.8 0.9 0.2 0.1 0.0 0.0 0.2 0.4 0.4 0.9 1.0 1.3 2.1 1.8 2.9 3.5 2.5 7.8 9.9 10.9 5.3 7.9 7.3 7.3 5.6 4.0 3.8 3.4
0.2 0.5 0.5 0.5 0.5 0.6 0.0 0.0 0.0 0.0 0.3 0.6 1.3 1.7 1.8 5.0 2.9 3.2 2.9 2.7 2.8 2.9 1.7 2.4 3.3 3.5 4.3 9.8 4.4 10.1 6.4 4.2

GFSFLT1_prec_snow_348.txt.gz
Snowfall_Accumulation
0.0 0.0 0.0 0.0 0.0 0.0 0.0 0.0 0.0 0.0 0.0 0.0 0.0 0.0 0.0 0.0 0.0 0.0 0.0 0.0 0.0 0.0 0.0 0.0 0.0 0.0 0.0 0.0 0.0 0.0 0.0 0.0
0.0 0.0 0.0 0.0 0.0 0.0 0.0 0.0 0.0 0.0 0.0 0.0 0.0 0.0 0.0 0.0 0.0 0.0 0.0 0.0 0.0 0.0 0.0 0.0 0.0 0.0 0.0 0.0 0.0 0.0 0.0 0.0
0.0 0.0 0.0 0.0 0.0 0.0 0.0 0.0 0.0 0.0 0.0 0.0 0.0 0.0 0.0 0.0 0.0 0.0 0.0 0.0 0.0 0.0 0.0 0.0 0.0 0.0 0.0 0.0 0.0 0.2 0.1 0.0
0.0 0.0 0.0 0.0 0.0 0.0 0.0 0.0 0.0 0.0 0.0 0.0 0.0 0.0 0.0 0.0 0.0 0.0 0.0 0.0 0.0 0.0 0.0 0.0 0.0 0.0 0.0 0.0 0.1 0.2 0.8 0.0
0.0 0.0 0.0 0.0 0.0 0.0 0.0 0.0 0.0 0.0 0.0 0.0 0.0 0.0 0.0 0.0 0.0 0.0 0.0 0.0 0.0 0.0 0.0 0.0 0.0 0.0 0.0 0.0 0.0 0.4 0.6 0.4
0.0 0.0 0.0 0.0 0.0 0.0 0.0 0.0 0.0 0.0 0.0 0.0 0.0 0.0 0.0 0.0 0.0 0.0 0.0 0.0 0.0 0.0 0.0 0.0 0.0 0.0 0.0 0.1 0.0 0.5 0.2 1.3
0.0 0.0 0.0 0.0 0.0 0.0 0.0 0.0 0.0 0.0 0.0 0.0 0.0 0.0 0.0 0.0 0.0 0.0 0.0 0.0 0.0 0.0 0.0 0.0 0.0 0.0 0.3 0.2 0.2 0.4 0.5 1.0
0.5 0.0 0.0 0.0 0.0 0.0 0.0 0.0 0.0 0.0 0.0 0.0 0.0 0.0 0.0 0.0 0.0 0.1 0.0 0.1 0.2 0.2 0.0 0.2 0.2 0.1 0.6 0.8 1.2 1.1 1.3 2.1
1.1 0.0 0.0 0.0 0.0 0.0 0.0 0.0 0.0 0.0 0.0 0.0 0.0 0.0 0.0 0.1 0.0 0.0 0.1 0.1 0.4 0.2 0.4 0.3 0.6 0.6 1.0 1.5 2.0 2.3 2.4 2.5
2.2 0.1 1.1 1.1 1.0 0.5 0.1 0.1 0.0 0.0 0.0 0.0 0.0 0.0 0.0 0.0 0.0 0.0 0.1 0.4 0.3 0.4 0.5 0.9 0.6 0.8 1.2 2.4 3.2 3.8 3.3 3.7
3.1 4.3 4.1 2.2 2.1 1.0 0.1 0.1 0.1 0.1 0.2 0.0 0.0 0.0 0.0 0.0 0.0 0.0 0.1 0.5 1.1 1.5 1.6 1.6 2.0 1.6 1.7 2.1 2.6 3.1 3.8 4.0
5.0 8.8 7.4 5.6 4.9 3.8 2.4 2.2 1.9 0.8 0.7 0.1 0.1 0.2 0.0 0.0 0.0 0.5 1.6 2.2 2.9 2.8 2.8 3.6 3.6 2.9 2.3 1.7 2.0 1.9 2.5 3.3
4.9 3.6 5.3 10.8 10.1 6.0 4.9 3.4 3.4 3.8 2.8 2.3 2.3 2.9 1.6 1.7 1.6 1.1 1.7 2.2 3.1 3.5 3.6 3.1 3.1 3.1 3.2 2.1 1.5 1.0 1.2 1.7
10.1 8.9 7.6 5.8 7.8 8.6 6.7 5.0 4.3 6.0 4.7 3.8 3.3 2.8 1.8 1.7 3.5 4.2 1.5 2.6 2.1 3.4 2.7 2.6 3.1 3.1 2.5 2.0 1.3 1.8 2.3 2.8
8.5 8.1 10.8 11.1 6.5 6.2 5.4 4.1 9.5 8.5 5.7 5.2 5.3 5.1 3.4 3.1 3.2 3.8 3.4 4.7 4.3 4.7 4.4 3.5 3.8 3.1 3.4 2.0 1.2 1.2 1.0 3.2
6.3 7.4 5.6 6.7 7.6 5.2 5.6 5.7 4.0 5.6 5.8 4.5 3.9 4.7 6.4 4.3 3.2 4.4 5.1 4.4 3.8 4.2 3.7 4.0 5.8 6.3 7.2 7.5 4.6 3.0 2.5 1.3
2.3 1.6 2.2 1.3 0.8 1.2 2.3 1.0 1.1 0.8 1.8 1.7 3.1 1.3 3.3 4.2 3.0 3.2 2.6 1.6 3.6 4.7 7.2 5.5 9.8 9.3 9.0 8.5 3.6 3.6 3.1 3.0
1.5 0.6 0.9 0.7 0.8 0.9 0.2 0.1 0.0 0.0 0.2 0.4 0.4 0.9 1.0 1.3 2.1 1.8 2.9 3.5 2.5 7.8 9.9 10.9 5.3 7.9 7.3 7.3 5.6 4.0 3.8 3.4
0.2 0.5 0.5 0.5 0.5 0.6 0.0 0.0 0.0 0.0 0.3 0.6 1.3 1.7 1.8 5.0 2.9 3.2 2.9 2.7 2.8 2.9 1.7 2.4 3.3 3.5 4.3 9.8 4.4 10.1 6.4 4.3

GFSFLT1_prec_snow_354.txt.gz
Snowfall_Accumulation
0.0 0.0 0.0 0.0 0.0 0.0 0.0 0.0 0.0 0.0 0.0 0.0 0.0 0.0 0.0 0.0 0.0 0.0 0.0 0.0 0.0 0.0 0.0 0.0 0.0 0.0 0.0 0.0 0.0 0.0 0.0 0.0
0.0 0.0 0.0 0.0 0.0 0.0 0.0 0.0 0.0 0.0 0.0 0.0 0.0 0.0 0.0 0.0 0.0 0.0 0.0 0.0 0.0 0.0 0.0 0.0 0.0 0.0 0.0 0.0 0.0 0.0 0.0 0.0
0.0 0.0 0.0 0.0 0.0 0.0 0.0 0.0 0.0 0.0 0.0 0.0 0.0 0.0 0.0 0.0 0.0 0.0 0.0 0.0 0.0 0.0 0.0 0.0 0.0 0.0 0.0 0.0 0.0 0.2 0.1 0.0
0.0 0.0 0.0 0.0 0.0 0.0 0.0 0.0 0.0 0.0 0.0 0.0 0.0 0.0 0.0 0.0 0.0 0.0 0.0 0.0 0.0 0.0 0.0 0.0 0.0 0.0 0.0 0.0 0.1 0.2 0.8 0.0
0.0 0.0 0.0 0.0 0.0 0.0 0.0 0.0 0.0 0.0 0.0 0.0 0.0 0.0 0.0 0.0 0.0 0.0 0.0 0.0 0.0 0.0 0.0 0.0 0.0 0.0 0.0 0.0 0.0 0.4 0.6 0.4
0.0 0.0 0.0 0.0 0.0 0.0 0.0 0.0 0.0 0.0 0.0 0.0 0.0 0.0 0.0 0.0 0.0 0.0 0.0 0.0 0.0 0.0 0.0 0.0 0.0 0.0 0.0 0.1 0.0 0.5 0.2 1.3
0.0 0.0 0.0 0.0 0.0 0.0 0.0 0.0 0.0 0.0 0.0 0.0 0.0 0.0 0.0 0.0 0.0 0.0 0.0 0.0 0.0 0.0 0.0 0.0 0.0 0.0 0.3 0.2 0.2 0.4 0.5 1.0
0.5 0.0 0.0 0.0 0.0 0.0 0.0 0.0 0.0 0.0 0.0 0.0 0.0 0.0 0.0 0.0 0.0 0.1 0.0 0.1 0.2 0.2 0.0 0.2 0.2 0.1 0.6 0.8 1.2 1.1 1.3 2.2
1.1 0.0 0.0 0.0 0.0 0.0 0.0 0.0 0.0 0.0 0.0 0.0 0.0 0.0 0.0 0.1 0.0 0.0 0.1 0.1 0.4 0.2 0.4 0.3 0.6 0.6 1.0 1.5 2.0 2.3 2.4 2.5
2.2 0.1 1.1 1.1 1.0 0.5 0.1 0.1 0.0 0.0 0.0 0.0 0.0 0.0 0.0 0.0 0.0 0.0 0.1 0.4 0.3 0.4 0.5 0.9 0.6 0.8 1.2 2.4 3.2 3.8 3.3 3.8
3.1 4.3 4.1 2.2 2.1 1.0 0.1 0.1 0.1 0.1 0.2 0.0 0.0 0.0 0.0 0.0 0.0 0.0 0.1 0.5 1.1 1.5 1.6 1.6 2.0 1.6 1.7 2.1 2.6 3.1 3.8 4.0
5.0 8.8 7.4 5.6 4.9 3.8 2.4 2.2 1.9 0.8 0.7 0.1 0.1 0.2 0.0 0.0 0.0 0.5 1.6 2.2 2.9 2.8 2.8 3.6 3.6 2.9 2.3 1.7 2.0 1.9 2.5 3.5
4.9 3.6 5.3 10.8 10.1 6.0 4.9 3.4 3.4 3.8 2.8 2.3 2.3 2.9 1.6 1.7 1.6 1.1 1.7 2.2 3.1 3.5 3.6 3.1 3.1 3.1 3.2 2.1 1.5 1.0 1.3 1.7
10.1 8.9 7.6 5.8 7.8 8.6 6.7 5.0 4.3 6.0 4.7 3.8 3.3 2.8 1.8 1.7 3.5 4.2 1.5 2.6 2.1 3.4 2.7 2.6 3.1 3.1 2.5 2.0 1.3 1.8 2.4 2.8
8.5 8.1 10.8 11.1 6.5 6.2 5.4 4.1 9.5 8.5 5.7 5.2 5.3 5.1 3.4 3.1 3.2 3.8 3.4 4.7 4.3 4.7 4.4 3.5 3.8 3.1 3.4 2.0 1.2 1.3 1.0 3.2
6.3 7.4 5.6 6.7 7.6 5.2 5.6 5.7 4.0 5.6 5.8 4.5 3.9 4.7 6.4 4.3 3.2 4.4 5.1 4.4 3.8 4.2 3.7 4.0 5.8 6.3 7.2 7.5 4.6 3.0 2.5 1.3
2.3 1.6 2.2 1.3 0.8 1.2 2.3 1.0 1.1 0.8 1.8 1.7 3.1 1.3 3.3 4.2 3.0 3.2 2.6 1.6 3.6 4.7 7.2 5.5 9.8 9.3 9.0 8.5 3.6 3.6 3.1 3.1
1.5 0.6 0.9 0.7 0.8 0.9 0.2 0.1 0.0 0.0 0.2 0.4 0.4 0.9 1.0 1.3 2.1 1.8 2.9 3.5 2.5 7.8 9.9 10.9 5.3 7.9 7.3 7.3 5.6 4.0 3.8 3.6
0.2 0.5 0.5 0.5 0.5 0.6 0.0 0.0 0.0 0.0 0.3 0.6 1.3 1.7 1.8 5.0 2.9 3.2 2.9 2.7 2.8 2.9 1.7 2.4 3.3 3.5 4.3 9.8 4.4 10.1 6.4 4.3

GFSFLT1_prec_snow_360.txt.gz
Snowfall_Accumulation
0.0 0.0 0.0 0.0 0.0 0.0 0.0 0.0 0.0 0.0 0.0 0.0 0.0 0.0 0.0 0.0 0.0 0.0 0.0 0.0 0.0 0.0 0.0 0.0 0.0 0.0 0.0 0.0 0.0 0.0 0.0 0.0
0.0 0.0 0.0 0.0 0.0 0.0 0.0 0.0 0.0 0.0 0.0 0.0 0.0 0.0 0.0 0.0 0.0 0.0 0.0 0.0 0.0 0.0 0.0 0.0 0.0 0.0 0.0 0.0 0.0 0.0 0.0 0.0
0.0 0.0 0.0 0.0 0.0 0.0 0.0 0.0 0.0 0.0 0.0 0.0 0.0 0.0 0.0 0.0 0.0 0.0 0.0 0.0 0.0 0.0 0.0 0.0 0.0 0.0 0.0 0.0 0.0 0.2 0.1 0.0
0.0 0.0 0.0 0.0 0.0 0.0 0.0 0.0 0.0 0.0 0.0 0.0 0.0 0.0 0.0 0.0 0.0 0.0 0.0 0.0 0.0 0.0 0.0 0.0 0.0 0.0 0.0 0.0 0.1 0.2 0.8 0.0
0.0 0.0 0.0 0.0 0.0 0.0 0.0 0.0 0.0 0.0 0.0 0.0 0.0 0.0 0.0 0.0 0.0 0.0 0.0 0.0 0.0 0.0 0.0 0.0 0.0 0.0 0.0 0.0 0.0 0.4 0.6 0.4
0.0 0.0 0.0 0.0 0.0 0.0 0.0 0.0 0.0 0.0 0.0 0.0 0.0 0.0 0.0 0.0 0.0 0.0 0.0 0.0 0.0 0.0 0.0 0.0 0.0 0.0 0.0 0.1 0.0 0.5 0.2 1.3
0.0 0.0 0.0 0.0 0.0 0.0 0.0 0.0 0.0 0.0 0.0 0.0 0.0 0.0 0.0 0.0 0.0 0.0 0.0 0.0 0.0 0.0 0.0 0.0 0.0 0.0 0.3 0.2 0.2 0.4 0.5 1.0
0.5 0.0 0.0 0.0 0.0 0.0 0.0 0.0 0.0 0.0 0.0 0.0 0.0 0.0 0.0 0.0 0.0 0.1 0.0 0.1 0.2 0.2 0.0 0.2 0.2 0.1 0.6 0.8 1.2 1.1 1.3 2.2
1.1 0.0 0.0 0.0 0.0 0.0 0.0 0.0 0.0 0.0 0.0 0.0 0.0 0.0 0.0 0.1 0.0 0.0 0.1 0.1 0.4 0.2 0.4 0.3 0.6 0.6 1.0 1.5 2.0 2.3 2.4 2.5
2.2 0.1 1.1 1.1 1.0 0.5 0.1 0.1 0.0 0.0 0.0 0.0 0.0 0.0 0.0 0.0 0.0 0.0 0.1 0.4 0.3 0.4 0.5 0.9 0.6 0.8 1.2 2.4 3.2 3.8 3.3 3.8
3.1 4.3 4.1 2.2 2.1 1.0 0.1 0.1 0.1 0.1 0.2 0.0 0.0 0.0 0.0 0.0 0.0 0.0 0.1 0.5 1.1 1.5 1.6 1.6 2.0 1.6 1.7 2.1 2.6 3.1 3.8 4.0
5.0 8.8 7.4 5.6 4.9 3.8 2.4 2.2 1.9 0.8 0.7 0.1 0.1 0.2 0.0 0.0 0.0 0.5 1.6 2.2 2.9 2.8 2.8 3.6 3.6 2.9 2.3 1.7 2.0 1.9 2.5 3.5
4.9 3.6 5.3 10.8 10.1 6.0 4.9 3.4 3.4 3.8 2.8 2.3 2.3 2.9 1.6 1.7 1.6 1.1 1.7 2.2 3.1 3.5 3.6 3.1 3.1 3.1 3.2 2.1 1.5 1.0 1.3 1.7
10.1 8.9 7.6 5.8 7.8 8.6 6.7 5.0 4.3 6.0 4.7 3.8 3.3 2.8 1.8 1.7 3.5 4.2 1.5 2.6 2.1 3.4 2.7 2.6 3.1 3.1 2.5 2.0 1.3 1.8 2.4 2.8
8.5 8.1 10.8 11.1 6.5 6.2 5.4 4.1 9.5 8.5 5.7 5.2 5.3 5.1 3.4 3.1 3.2 3.8 3.4 4.7 4.3 4.7 4.4 3.5 3.8 3.1 3.4 2.0 1.2 1.3 1.0 3.2
6.3 7.4 5.6 6.7 7.6 5.2 5.6 5.7 4.0 5.6 5.8 4.5 3.9 4.7 6.4 4.3 3.2 4.4 5.1 4.4 3.8 4.2 3.7 4.0 5.8 6.3 7.2 7.5 4.6 3.0 2.5 1.3
2.3 1.6 2.2 1.3 0.8 1.2 2.3 1.0 1.1 0.8 1.8 1.7 3.1 1.3 3.3 4.2 3.0 3.2 2.6 1.6 3.6 4.7 7.2 5.5 9.8 9.3 9.0 8.5 3.6 3.6 3.1 3.2
1.5 0.6 0.9 0.7 0.8 0.9 0.2 0.1 0.0 0.0 0.2 0.4 0.4 0.9 1.0 1.3 2.1 1.8 2.9 3.5 2.5 7.8 9.9 10.9 5.3 7.9 7.3 7.3 5.6 4.0 3.9 3.9
0.2 0.5 0.5 0.5 0.5 0.6 0.0 0.0 0.0 0.0 0.3 0.6 1.3 1.7 1.8 5.0 2.9 3.2 2.9 2.7 2.8 2.9 1.7 2.4 3.3 3.5 4.3 9.8 4.4 10.1 6.4 4.3

GFSFLT1_prec_snow_363.txt.gz
Snowfall_Accumulation
0.0 0.0 0.0 0.0 0.0 0.0 0.0 0.0 0.0 0.0 0.0 0.0 0.0 0.0 0.0 0.0 0.0 0.0 0.0 0.0 0.0 0.0 0.0 0.0 0.0 0.0 0.0 0.0 0.0 0.0 0.0 0.0
0.0 0.0 0.0 0.0 0.0 0.0 0.0 0.0 0.0 0.0 0.0 0.0 0.0 0.0 0.0 0.0 0.0 0.0 0.0 0.0 0.0 0.0 0.0 0.0 0.0 0.0 0.0 0.0 0.0 0.0 0.0 0.0
0.0 0.0 0.0 0.0 0.0 0.0 0.0 0.0 0.0 0.0 0.0 0.0 0.0 0.0 0.0 0.0 0.0 0.0 0.0 0.0 0.0 0.0 0.0 0.0 0.0 0.0 0.0 0.0 0.0 0.2 0.1 0.0
0.0 0.0 0.0 0.0 0.0 0.0 0.0 0.0 0.0 0.0 0.0 0.0 0.0 0.0 0.0 0.0 0.0 0.0 0.0 0.0 0.0 0.0 0.0 0.0 0.0 0.0 0.0 0.0 0.1 0.2 0.8 0.0
0.0 0.0 0.0 0.0 0.0 0.0 0.0 0.0 0.0 0.0 0.0 0.0 0.0 0.0 0.0 0.0 0.0 0.0 0.0 0.0 0.0 0.0 0.0 0.0 0.0 0.0 0.0 0.0 0.0 0.4 0.6 0.4
0.0 0.0 0.0 0.0 0.0 0.0 0.0 0.0 0.0 0.0 0.0 0.0 0.0 0.0 0.0 0.0 0.0 0.0 0.0 0.0 0.0 0.0 0.0 0.0 0.0 0.0 0.0 0.1 0.0 0.5 0.2 1.3
0.0 0.0 0.0 0.0 0.0 0.0 0.0 0.0 0.0 0.0 0.0 0.0 0.0 0.0 0.0 0.0 0.0 0.0 0.0 0.0 0.0 0.0 0.0 0.0 0.0 0.0 0.3 0.2 0.2 0.4 0.5 1.0
0.5 0.0 0.0 0.0 0.0 0.0 0.0 0.0 0.0 0.0 0.0 0.0 0.0 0.0 0.0 0.0 0.0 0.1 0.0 0.1 0.2 0.2 0.0 0.2 0.2 0.1 0.6 0.8 1.2 1.1 1.3 2.2
1.1 0.0 0.0 0.0 0.0 0.0 0.0 0.0 0.0 0.0 0.0 0.0 0.0 0.0 0.0 0.1 0.0 0.0 0.1 0.1 0.4 0.2 0.4 0.3 0.6 0.6 1.0 1.5 2.0 2.3 2.4 2.5
2.2 0.1 1.1 1.1 1.0 0.5 0.1 0.1 0.0 0.0 0.0 0.0 0.0 0.0 0.0 0.0 0.0 0.0 0.1 0.4 0.3 0.4 0.5 0.9 0.6 0.8 1.2 2.4 3.2 3.8 3.3 3.8
3.1 4.3 4.1 2.2 2.1 1.0 0.1 0.1 0.1 0.1 0.2 0.0 0.0 0.0 0.0 0.0 0.0 0.0 0.1 0.5 1.1 1.5 1.6 1.6 2.0 1.6 1.7 2.1 2.6 3.1 3.8 4.0
5.0 8.8 7.4 5.6 4.9 3.8 2.4 2.2 1.9 0.8 0.7 0.1 0.1 0.2 0.0 0.0 0.0 0.5 1.6 2.2 2.9 2.8 2.8 3.6 3.6 2.9 2.3 1.7 2.0 1.9 2.5 3.5
4.9 3.6 5.3 10.8 10.1 6.0 4.9 3.4 3.4 3.8 2.8 2.3 2.3 2.9 1.6 1.7 1.6 1.1 1.7 2.2 3.1 3.5 3.6 3.1 3.1 3.1 3.2 2.1 1.5 1.0 1.3 1.7
10.1 8.9 7.6 5.8 7.8 8.6 6.7 5.0 4.3 6.0 4.7 3.8 3.3 2.8 1.8 1.7 3.5 4.2 1.5 2.6 2.1 3.4 2.7 2.6 3.1 3.1 2.5 2.0 1.3 1.8 2.4 2.8
8.5 8.1 10.8 11.1 6.5 6.2 5.4 4.1 9.5 8.5 5.7 5.2 5.3 5.1 3.4 3.1 3.2 3.8 3.4 4.7 4.3 4.7 4.4 3.5 3.8 3.1 3.4 2.0 1.2 1.3 1.0 3.2
6.3 7.4 5.6 6.7 7.6 5.2 5.6 5.7 4.0 5.6 5.8 4.5 3.9 4.7 6.4 4.3 3.2 4.4 5.1 4.4 3.8 4.2 3.7 4.0 5.8 6.3 7.2 7.5 4.6 3.0 2.5 1.3
2.3 1.6 2.2 1.3 0.8 1.2 2.3 1.0 1.1 0.8 1.8 1.7 3.1 1.3 3.3 4.2 3.0 3.2 2.6 1.6 3.6 4.7 7.2 5.5 9.8 9.3 9.0 8.6 3.6 3.6 3.1 3.2
1.5 0.6 0.9 0.7 0.8 0.9 0.2 0.1 0.0 0.0 0.2 0.4 0.4 0.9 1.0 1.3 2.1 1.8 2.9 3.5 2.5 7.8 9.9 10.9 5.3 7.9 7.3 7.4 5.7 4.0 3.9 3.9
0.2 0.5 0.5 0.5 0.5 0.6 0.0 0.0 0.0 0.0 0.3 0.6 1.3 1.7 1.8 5.0 2.9 3.2 2.9 2.7 2.8 2.9 1.7 2.4 3.3 3.5 4.3 9.8 4.4 10.1 6.4 4.3